Location: Friaudour
(46.0460°N, 1.2873°E)
Time: 10:48:57
(UTC+00:00)

NPP - Pass Details

Date: 14 July 2020
Orbit: 826 x 828 km, 98.7° (Epoch: 05 August)

Event Time Altitude Azimuth Distance (km) Brightness Sun altitude
Rises 01:18:31 0° 18° (NNE) 3,376 8.5 -20.1°
Reaches altitude 10° 01:20:57 10° 24° (NNE) 2,438 7.3 -19.9°
Maximum altitude 01:26:12 51° 100° (E) 1,033 4.2 -19.6°
Enters shadow 01:28:50 28° 162° (SSE) 1,514 4.6 -19.4°
